Weather Roundup
Issued by NWS Chicago, IL

Home | Current Version | Previous Version | Graphics & Text | Print | Product List | Glossary On
Versions: 1 2 3 4 5 6 7 8 9 10 11 12 13 14 15 16 17 18 19 20 21 22 23 24 25 26 27 28 29 30 31 32 33 34 35 36 37 38 39 40 41 42 43 44 45 46 47 48 49 50
000
NZUS59 KLOT 300910
HRRLOT

CHICAGO AREA WEATHER ROUNDUP
NATIONAL WEATHER SERVICE CHICAGO/ROMEOVILLE IL
400 AM CDT TUE SEP 30 2014

NOTE: "FAIR" INDICATES FEW OR NO CLOUDS BELOW 12,000 FEET WITH NO
SIGNIFICANT WEATHER AND/OR OBSTRUCTIONS TO VISIBILITY.

* THESE STATIONS ARE NOT UNDER NWS QUALITY CONTROL. THEY ALSO MAY NOT
  REPORT WEATHER SUCH AS PRECIPITATION OR FOG.

ILZ005-006-012>014-019>023-301000-
NORTHEAST ILLINOIS

CITY           SKY/WX    TMP DP  RH WIND       PRES   REMARKS
OHARE          CLOUDY    51  46  83 N14       30.04S
MIDWAY         MOCLDY    55  48  77 N14       30.03R
AURORA         CLOUDY    53  46  77 N12       30.04S
LANSING*       CLOUDY    54  49  83 NE10G21   30.02R
JOLIET*        CLOUDY    53  48  82 NE13      30.03R
WAUKEGAN       CLOUDY    46  44  93 N10       30.05F FOG
DUPAGE AIRPORT CLOUDY    51  45  79 NE14      30.04R
WHEELING       CLOUDY    51  46  83 N8        30.05F
KANKAKEE*      CLOUDY    55  51  86 N7        30.02S
MORRIS*        CLOUDY    55  51  86 NE5       30.02S
LEWIS AIRPORT* CLOUDY    53  47  81 NE16      30.03S
NORTHERLY IS     N/A     53  48  83 N17         N/A
$$

WIZ051-052-058>065-066-070>072-301000-
SOUTHEAST WISCONSIN

CITY           SKY/WX    TMP DP  RH WIND       PRES   REMARKS
MILWAUKEE      CLOUDY    46  40  79 N8        30.08S
KENOSHA*       CLOUDY    47  42  83 N9        30.07S
RACINE*        CLOUDY    46  43  89 N9        30.08S FOG
BURLINGTON     CLOUDY    45  41  87 NE8       30.07S
WAUKESHA       CLOUDY    43  37  81 N6        30.09S
WEST BEND      CLOUDY    43  37  81 N12       30.08S
$$

INZ001>003-010>013-019-020-301000-
NORTHWEST INDIANA

CITY           SKY/WX    TMP DP  RH WIND       PRES   REMARKS
GARY*          CLOUDY    56  49  78 N15G23    30.03S
MICHIGAN CITY* NOT AVBL
RENSSELAER*    NOT AVBL
VALPARAISO     CLOUDY    54  49  83 N7        30.01R
$$

LMZ740>746-301000-
SOUTHERN LAKE MICHIGAN

STATION/POSITION TIME  SKY/WX   TEMP WIND        PRES    VSBY
                                AIR  DIR/SP/G
                 (UTC)          (F)  (DEG/KT/KT) (MB)    (MI)
HARRISON CRIB    0900            53   10/ 21/ 23   N/A
BURNHAM HARBOR   0900            53  360/ 14/ 21   N/A
CALUMET HARBOR   0900            54   10/ 12/ 17 1015.7F
BURNS HARBOR     NOT AVBL
MICHIGAN CITY    0900            54  350/ 25/ 29   N/A
$$

ABBREVIATIONS USED IN REMARKS
   TC - TEMPERATURE IN CELSIUS
  WCI - WIND CHILL INDEX
   HX - HEAT INDEX
  VSB - VISIBILITY
$$



USA.gov is the U.S. government's official web portal to all federal, state and local government web resources and services.